When you browse on this site, cookies collect data to enhance your experience and personalize the content and advertising you see.
Visit our Privacy Policy to learn more. By continuing to use the site, you agree to this use of cookies and data.
  • In Hungary
  • List of Countries
  • For 7 days
  • Water Temperature
  • Satellite Maps
  • Weather Map
  • News
  • Weather Widgets
  • user-avatar
    Login

    Hourly Weather Dos Hermanas

    Today, 20 June, Thursday

    Time Temperature Precipitation Wind Pressure Humidity
    00:00 +17°C° 0 mm 2 mps 757 mmHg 87%
    01:00 +17°C° 0 mm 2 mps 757 mmHg 87%
    02:00 +16°C° 0 mm 1 mps 757 mmHg 87%
    03:00 +16°C° 0 mm 1 mps 757 mmHg 87%
    04:00 +16°C° 0 mm 1 mps 757 mmHg 85%
    05:00 +18°C° 0 mm 1 mps 757 mmHg 83%
    06:00 +18°C° 0 mm 1 mps 757 mmHg 80%
    07:00 +21°C° 0 mm 1 mps 757 mmHg 70%
    08:00 +23°C° 0 mm 2 mps 757 mmHg 60%
    09:00 +25°C° 0 mm 3 mps 757 mmHg 49%
    10:00 +27°C° 0 mm 3 mps 757 mmHg 44%
    11:00 +29°C° 0 mm 4 mps 757 mmHg 39%
    12:00 +29°C° 0 mm 4 mps 757 mmHg 35%
    13:00 +30°C° 0 mm 5 mps 757 mmHg 34%
    14:00 +30°C° 0 mm 6 mps 756 mmHg 34%
    15:00 +32°C° 0 mm 7 mps 755 mmHg 33%
    16:00 +29°C° 0 mm 7 mps 755 mmHg 36%
    17:00 +28°C° 0 mm 7 mps 755 mmHg 40%
    18:00 +27°C° 0 mm 7 mps 755 mmHg 44%
    19:00 +23°C° 0 mm 6 mps 756 mmHg 52%
    20:00 +21°C° 0 mm 4 mps 756 mmHg 61%
    21:00 +19°C° 0 mm 3 mps 756 mmHg 70%
    22:00 +18°C° 0 mm 3 mps 757 mmHg 71%
    23:00 +18°C° 0 mm 2 mps 757 mmHg 72%

    Tomorrow, 21 June, Friday

    Time Temperature Precipitation Wind Pressure Humidity
    00:00 +17°C° 0 mm 2 mps 757 mmHg 73%
    01:00 +17°C° 0 mm 2 mps 757 mmHg 75%
    02:00 +16°C° 0 mm 1 mps 757 mmHg 77%
    03:00 +15°C° 0 mm 1 mps 757 mmHg 78%
    04:00 +15°C° 0 mm 1 mps 757 mmHg 78%
    05:00 +15°C° 0 mm 1 mps 757 mmHg 77%
    06:00 +15°C° 0 mm 1 mps 757 mmHg 76%
    07:00 +19°C° 0 mm 1 mps 758 mmHg 65%
    08:00 +23°C° 0 mm 1 mps 758 mmHg 54%
    09:00 +24°C° 0 mm 0 mps 758 mmHg 42%
    10:00 +28°C° 0 mm 1 mps 758 mmHg 35%
    11:00 +30°C° 0 mm 2 mps 757 mmHg 27%
    12:00 +32°C° 0 mm 2 mps 757 mmHg 19%
    13:00 +34°C° 0 mm 2 mps 756 mmHg 17%
    14:00 +35°C° 0 mm 3 mps 756 mmHg 16%
    15:00 +36°C° 0 mm 3 mps 755 mmHg 14%
    16:00 +35°C° 0 mm 4 mps 755 mmHg 18%
    17:00 +33°C° 0 mm 5 mps 755 mmHg 22%
    18:00 +32°C° 0 mm 6 mps 755 mmHg 25%
    19:00 +28°C° 0 mm 5 mps 755 mmHg 33%
    20:00 +25°C° 0 mm 4 mps 755 mmHg 41%
    21:00 +21°C° 0 mm 3 mps 756 mmHg 49%
    22:00 +20°C° 0 mm 2 mps 756 mmHg 53%
    23:00 +19°C° 0 mm 2 mps 756 mmHg 57%

    Day after tomorrow, 22 June, Saturday

    Time Temperature Precipitation Wind Pressure Humidity
    00:00 +19°C° 0 mm 1 mps 756 mmHg 61%
    01:00 +18°C° 0 mm 1 mps 756 mmHg 63%
    02:00 +18°C° 0 mm 1 mps 756 mmHg 65%
    03:00 +16°C° 0 mm 1 mps 756 mmHg 67%
    04:00 +18°C° 0 mm 1 mps 756 mmHg 65%
    05:00 +18°C° 0 mm 1 mps 756 mmHg 63%
    06:00 +18°C° 0 mm 1 mps 756 mmHg 62%
    07:00 +21°C° 0 mm 1 mps 756 mmHg 53%
    08:00 +24°C° 0 mm 2 mps 757 mmHg 45%
    09:00 +27°C° 0 mm 2 mps 757 mmHg 36%
    10:00 +30°C° 0 mm 2 mps 757 mmHg 31%
    11:00 +33°C° 0 mm 3 mps 756 mmHg 25%
    12:00 +36°C° 0 mm 4 mps 756 mmHg 20%
    13:00 +36°C° 0 mm 4 mps 755 mmHg 19%
    14:00 +37°C° 0 mm 5 mps 755 mmHg 19%
    15:00 +38°C° 0 mm 6 mps 755 mmHg 18%
    16:00 +36°C° 0 mm 6 mps 754 mmHg 19%
    17:00 +35°C° 0 mm 6 mps 754 mmHg 20%
    18:00 +33°C° 0 mm 6 mps 754 mmHg 21%
    19:00 +29°C° 0 mm 5 mps 754 mmHg 28%
    20:00 +25°C° 0 mm 4 mps 755 mmHg 36%
    21:00 +20°C° 0 mm 3 mps 755 mmHg 44%
    22:00 +20°C° 0 mm 3 mps 755 mmHg 47%
    23:00 +19°C° 0 mm 2 mps 755 mmHg 51%

    23 June, Sunday

    Time Temperature Precipitation Wind Pressure Humidity
    00:00 +19°C° 0 mm 1 mps 755 mmHg 54%
    01:00 +18°C° 0 mm 1 mps 755 mmHg 58%
    02:00 +18°C° 0 mm 1 mps 755 mmHg 62%
    03:00 +15°C° 0 mm 0 mps 755 mmHg 66%
    04:00 +16°C° 0 mm 0 mps 755 mmHg 65%
    05:00 +18°C° 0 mm 1 mps 755 mmHg 64%
    06:00 +19°C° 0 mm 1 mps 756 mmHg 63%
    07:00 +21°C° 0 mm 1 mps 756 mmHg 58%
    08:00 +24°C° 0 mm 2 mps 756 mmHg 53%
    09:00 +27°C° 0 mm 2 mps 755 mmHg 48%
    10:00 +29°C° 0 mm 2 mps 755 mmHg 41%
    11:00 +31°C° 0 mm 3 mps 755 mmHg 34%
    12:00 +35°C° 0 mm 3 mps 755 mmHg 28%
    13:00 +35°C° 0 mm 4 mps 755 mmHg 28%
    14:00 +35°C° 0 mm 5 mps 754 mmHg 28%
    15:00 +35°C° 0 mm 6 mps 754 mmHg 29%
    16:00 +34°C° 0 mm 6 mps 754 mmHg 29%
    17:00 +33°C° 0 mm 6 mps 754 mmHg 29%
    18:00 +32°C° 0 mm 6 mps 754 mmHg 28%
    19:00 +28°C° 0 mm 5 mps 754 mmHg 40%
    20:00 +25°C° 0 mm 4 mps 755 mmHg 51%
    21:00 +21°C° 0 mm 3 mps 755 mmHg 62%
    22:00 +20°C° 0 mm 3 mps 755 mmHg 70%
    23:00 +19°C° 0 mm 2 mps 756 mmHg 78%

    24 June, Monday

    Time Temperature Precipitation Wind Pressure Humidity
    00:00 +19°C° 0 mm 2 mps 756 mmHg 86%
    01:00 +19°C° 0 mm 2 mps 756 mmHg 87%
    02:00 +19°C° 0 mm 1 mps 756 mmHg 89%
    03:00 +19°C° 0 mm 1 mps 756 mmHg 90%
    04:00 +19°C° 0 mm 1 mps 756 mmHg 89%
    05:00 +20°C° 0 mm 1 mps 756 mmHg 89%
    06:00 +20°C° 0 mm 1 mps 756 mmHg 88%
    07:00 +23°C° 0 mm 1 mps 756 mmHg 76%
    08:00 +25°C° 0 mm 1 mps 756 mmHg 65%
    09:00 +28°C° 0 mm 1 mps 756 mmHg 54%
    10:00 +30°C° 0 mm 1 mps 756 mmHg 46%
    11:00 +32°C° 0 mm 2 mps 756 mmHg 37%
    12:00 +36°C° 0 mm 2 mps 756 mmHg 29%
    13:00 +36°C° 0 mm 3 mps 756 mmHg 28%
    14:00 +37°C° 0 mm 4 mps 755 mmHg 28%
    15:00 +37°C° 0 mm 5 mps 755 mmHg 27%
    16:00 +36°C° 0 mm 5 mps 754 mmHg 32%
    17:00 +34°C° 0 mm 6 mps 754 mmHg 38%
    18:00 +32°C° 0 mm 6 mps 754 mmHg 43%
    19:00 +29°C° 0 mm 5 mps 755 mmHg 49%
    20:00 +26°C° 0 mm 4 mps 755 mmHg 55%
    21:00 +23°C° 0 mm 4 mps 756 mmHg 60%
    22:00 +22°C° 0 mm 3 mps 756 mmHg 60%
    23:00 +22°C° 0 mm 3 mps 756 mmHg 61%

    25 June, Tuesday

    Time Temperature Precipitation Wind Pressure Humidity
    00:00 +21°C° 0 mm 2 mps 756 mmHg 61%
    01:00 +21°C° 0 mm 2 mps 756 mmHg 62%
    02:00 +20°C° 0 mm 2 mps 756 mmHg 64%
    03:00 +21°C° 0 mm 1 mps 756 mmHg 65%
    04:00 +21°C° 0 mm 1 mps 756 mmHg 65%
    05:00 +21°C° 0 mm 1 mps 756 mmHg 65%
    06:00 +21°C° 0 mm 1 mps 756 mmHg 64%
    07:00 +24°C° 0 mm 1 mps 757 mmHg 55%
    08:00 +27°C° 0 mm 2 mps 757 mmHg 47%
    09:00 +29°C° 0 mm 2 mps 757 mmHg 38%
    10:00 +31°C° 0 mm 3 mps 757 mmHg 33%
    11:00 +35°C° 0 mm 3 mps 757 mmHg 28%
    12:00 +37°C° 0 mm 4 mps 756 mmHg 24%
    13:00 +37°C° 0 mm 4 mps 756 mmHg 23%
    14:00 +39°C° 0 mm 5 mps 756 mmHg 22%
    15:00 +39°C° 0 mm 6 mps 755 mmHg 21%
    16:00 +36°C° 0 mm 6 mps 755 mmHg 23%
    17:00 +35°C° 0 mm 6 mps 755 mmHg 26%
    18:00 +33°C° 0 mm 6 mps 755 mmHg 28%
    19:00 +29°C° 0 mm 5 mps 755 mmHg 35%
    20:00 +26°C° 0 mm 4 mps 756 mmHg 42%
    21:00 +22°C° 0 mm 3 mps 756 mmHg 49%
    22:00 +21°C° 0 mm 3 mps 757 mmHg 52%
    23:00 +21°C° 0 mm 2 mps 757 mmHg 55%
    Show more